Time,TemperatureF,DewpointF,PressureIn,WindDirection,WindDirectionDegrees,WindSpeedMPH,WindSpeedGustMPH,Humidity,HourlyPrecipIn,Conditions,Clouds,dailyrainin,SoftwareType,DateUTC
2013-02-07 00:02:00,29.0,24.0,30.18,ESE,119,2.0,4.0,81,0.00,,,0.04,,2013-02-07 05:02:00,
2013-02-07 00:12:00,29.0,24.0,30.18,ESE,119,2.0,4.0,81,0.00,,,0.04,,2013-02-07 05:12:00,
2013-02-07 00:21:00,29.0,24.0,30.18,ESE,119,3.0,5.0,82,0.00,,,0.04,,2013-02-07 05:21:00,
2013-02-07 00:32:00,29.0,25.0,30.18,ESE,123,4.0,7.0,83,0.00,,,0.04,,2013-02-07 05:32:00,
2013-02-07 00:42:00,29.0,25.0,30.18,ESE,123,4.0,7.0,83,0.00,,,0.04,,2013-02-07 05:42:00,
2013-02-07 00:52:00,29.0,25.0,30.18,SE,126,4.0,7.0,83,0.00,,,0.04,,2013-02-07 05:52:00,
2013-02-07 01:02:00,29.0,25.0,30.19,SE,135,3.0,6.0,84,0.00,,,0.04,,2013-02-07 06:02:00,
2013-02-07 01:11:00,29.0,25.0,30.19,SE,135,3.0,6.0,84,0.00,,,0.04,,2013-02-07 06:11:00,
2013-02-07 01:22:00,29.0,25.0,30.18,SE,135,5.0,8.0,84,0.00,,,0.04,,2013-02-07 06:22:00,
2013-02-07 01:32:00,29.0,25.0,30.18,ESE,121,5.0,8.0,84,0.00,,,0.04,,2013-02-07 06:32:00,
2013-02-07 01:43:00,29.0,25.0,30.18,ESE,121,5.0,8.0,84,0.00,,,0.04,,2013-02-07 06:43:00,
2013-02-07 01:52:00,29.0,25.0,30.16,SE,128,9.0,13.0,84,0.00,,,0.04,,2013-02-07 06:52:00,
2013-02-07 02:01:00,29.0,25.0,30.15,SE,128,9.0,12.0,84,0.00,,,0.04,,2013-02-07 07:01:00,
2013-02-07 02:11:00,29.0,25.0,30.13,SE,136,8.0,14.0,84,0.00,,,0.04,,2013-02-07 07:11:00,
2013-02-07 02:22:00,29.0,25.0,30.13,SE,136,8.0,14.0,84,0.00,,,0.04,,2013-02-07 07:22:00,
2013-02-07 02:32:00,29.0,25.0,30.13,ESE,123,6.0,11.0,84,0.00,,,0.04,,2013-02-07 07:32:00,
2013-02-07 02:42:00,29.0,25.0,30.13,ESE,123,6.0,11.0,84,0.00,,,0.04,,2013-02-07 07:42:00,
2013-02-07 02:52:00,29.0,25.0,30.13,East,99,7.0,10.0,84,0.00,,,0.04,,2013-02-07 07:52:00,
2013-02-07 03:01:00,29.0,25.0,30.14,ESE,108,6.0,9.0,84,0.00,,,0.04,,2013-02-07 08:01:00,
2013-02-07 03:11:00,29.0,25.0,30.14,ESE,108,6.0,9.0,84,0.00,,,0.04,,2013-02-07 08:11:00,
2013-02-07 03:22:00,29.0,25.0,30.14,ESE,123,7.0,10.0,84,0.00,,,0.04,,2013-02-07 08:22:00,
2013-02-07 03:32:00,29.0,25.0,30.14,East,89,5.0,8.0,85,0.00,,,0.04,,2013-02-07 08:32:00,
2013-02-07 03:42:00,29.0,25.0,30.14,East,89,5.0,8.0,85,0.00,,,0.04,,2013-02-07 08:42:00,
2013-02-07 03:52:00,29.0,25.0,30.14,ESE,107,4.0,8.0,85,0.00,,,0.04,,2013-02-07 08:52:00,
2013-02-07 04:02:00,29.0,25.0,30.14,ESE,113,5.0,8.0,85,0.00,,,0.04,,2013-02-07 09:02:00,
2013-02-07 04:11:00,29.0,25.0,30.14,ESE,113,5.0,8.0,85,0.00,,,0.04,,2013-02-07 09:11:00,
2013-02-07 04:21:00,29.0,25.0,30.14,East,93,4.0,9.0,85,0.00,,,0.04,,2013-02-07 09:21:00,
2013-02-07 04:32:00,28.0,24.0,30.13,ESE,121,7.0,11.0,85,0.00,,,0.04,,2013-02-07 09:32:00,
2013-02-07 04:42:00,28.0,24.0,30.13,ESE,121,7.0,11.0,85,0.00,,,0.04,,2013-02-07 09:42:00,
2013-02-07 04:52:00,28.0,24.0,30.13,ESE,120,6.0,12.0,85,0.00,,,0.04,,2013-02-07 09:52:00,
2013-02-07 05:02:00,28.0,24.0,30.14,SE,130,7.0,12.0,85,0.00,,,0.04,,2013-02-07 10:02:00,
2013-02-07 05:11:00,28.0,24.0,30.14,SE,130,7.0,12.0,85,0.00,,,0.04,,2013-02-07 10:11:00,
2013-02-07 05:22:00,28.0,24.0,30.14,SE,136,6.0,9.0,86,0.00,,,0.04,,2013-02-07 10:22:00,
2013-02-07 05:32:00,28.0,24.0,30.13,ESE,115,6.0,9.0,86,0.00,,,0.04,,2013-02-07 10:32:00,
2013-02-07 05:42:00,28.0,24.0,30.13,ESE,115,6.0,9.0,86,0.00,,,0.04,,2013-02-07 10:42:00,
2013-02-07 05:52:00,28.0,24.0,30.13,East,100,6.0,8.0,86,0.00,,,0.04,,2013-02-07 10:52:00,
2013-02-07 06:01:00,27.0,24.0,30.14,ESE,121,5.0,12.0,87,0.00,,,0.04,,2013-02-07 11:01:00,
2013-02-07 06:11:00,27.0,24.0,30.14,ESE,121,5.0,12.0,87,0.00,,,0.04,,2013-02-07 11:11:00,
2013-02-07 06:23:00,27.0,24.0,30.14,ESE,112,4.0,8.0,87,0.00,,,0.04,,2013-02-07 11:23:00,
2013-02-07 06:32:00,27.0,24.0,30.13,SE,132,5.0,11.0,87,0.00,,,0.04,,2013-02-07 11:32:00,
2013-02-07 06:44:00,27.0,24.0,30.13,SE,132,5.0,11.0,87,0.00,,,0.04,,2013-02-07 11:44:00,
2013-02-07 06:53:00,27.0,24.0,30.13,ESE,108,6.0,11.0,87,0.00,,,0.04,,2013-02-07 11:53:00,
2013-02-07 07:02:00,27.0,24.0,30.12,ESE,114,6.0,10.0,88,0.00,,,0.04,,2013-02-07 12:02:00,
2013-02-07 07:11:00,27.0,24.0,30.12,ESE,114,6.0,10.0,88,0.00,,,0.04,,2013-02-07 12:11:00,
2013-02-07 07:22:00,27.0,24.0,30.13,ESE,104,5.0,8.0,88,0.00,,,0.04,,2013-02-07 12:22:00,
2013-02-07 07:33:00,27.0,24.0,30.11,East,80,7.0,10.0,87,0.00,,,0.04,,2013-02-07 12:33:00,
2013-02-07 07:42:00,27.0,24.0,30.11,East,80,7.0,10.0,87,0.00,,,0.04,,2013-02-07 12:42:00,
2013-02-07 07:53:00,27.0,24.0,30.12,ESE,121,6.0,9.0,87,0.00,,,0.04,,2013-02-07 12:53:00,
2013-02-07 08:03:00,28.0,25.0,30.12,ESE,109,5.0,8.0,87,0.00,,,0.04,,2013-02-07 13:03:00,
2013-02-07 08:12:00,28.0,25.0,30.12,ESE,109,5.0,8.0,87,0.00,,,0.04,,2013-02-07 13:12:00,
2013-02-07 08:22:00,28.0,25.0,30.11,ESE,110,4.0,7.0,87,0.00,,,0.04,,2013-02-07 13:22:00,
2013-02-07 08:32:00,28.0,24.0,30.11,ESE,103,3.0,8.0,86,0.00,,,0.04,,2013-02-07 13:32:00,
2013-02-07 08:42:00,28.0,24.0,30.11,ESE,103,3.0,8.0,86,0.00,,,0.04,,2013-02-07 13:42:00,
2013-02-07 08:52:00,28.0,24.0,30.12,East,100,4.0,6.0,86,0.00,,,0.04,,2013-02-07 13:52:00,
2013-02-07 09:01:00,28.0,24.0,30.12,East,96,4.0,5.0,86,0.00,,,0.04,,2013-02-07 14:01:00,
2013-02-07 09:11:00,28.0,24.0,30.12,East,96,4.0,5.0,86,0.00,,,0.04,,2013-02-07 14:11:00,
2013-02-07 09:22:00,28.0,24.0,30.11,East,97,5.0,8.0,85,0.00,,,0.04,,2013-02-07 14:22:00,
2013-02-07 09:32:00,29.0,25.0,30.11,ESE,122,6.0,10.0,84,0.00,,,0.04,,2013-02-07 14:32:00,
2013-02-07 09:42:00,29.0,25.0,30.11,ESE,122,6.0,10.0,84,0.00,,,0.04,,2013-02-07 14:42:00,
2013-02-07 09:52:00,29.0,25.0,30.11,SE,125,6.0,10.0,84,0.00,,,0.04,,2013-02-07 14:52:00,
2013-02-07 10:02:00,30.0,25.0,30.10,SE,127,8.0,10.0,82,0.00,,,0.04,,2013-02-07 15:02:00,
2013-02-07 10:11:00,30.0,25.0,30.10,SE,127,8.0,10.0,82,0.00,,,0.04,,2013-02-07 15:11:00,
2013-02-07 10:22:00,30.0,25.0,30.09,East,98,5.0,12.0,82,0.00,,,0.03,,2013-02-07 15:22:00,
2013-02-07 10:32:00,31.0,26.0,30.09,SE,142,6.0,8.0,81,0.00,,,0.03,,2013-02-07 15:32:00,
2013-02-07 10:42:00,31.0,26.0,30.09,SE,142,6.0,8.0,81,0.00,,,0.03,,2013-02-07 15:42:00,
2013-02-07 10:52:00,31.0,26.0,30.08,ESE,123,11.0,14.0,80,0.00,,,0.03,,2013-02-07 15:52:00,
2013-02-07 11:01:00,32.0,27.0,30.06,SE,140,11.0,14.0,80,0.00,,,0.03,,2013-02-07 16:01:00,
2013-02-07 11:11:00,32.0,27.0,30.06,SE,140,11.0,14.0,80,0.00,,,0.03,,2013-02-07 16:11:00,
2013-02-07 11:22:00,33.0,27.0,30.06,ESE,123,10.0,14.0,79,0.00,,,0.01,,2013-02-07 16:22:00,
2013-02-07 11:32:00,33.0,27.0,30.06,SE,138,9.0,15.0,78,0.00,,,0.01,,2013-02-07 16:32:00,
2013-02-07 11:42:00,33.0,27.0,30.06,SE,138,9.0,15.0,78,0.00,,,0.01,,2013-02-07 16:42:00,
2013-02-07 11:52:00,35.0,28.0,30.05,SE,131,10.0,15.0,76,0.00,,,0.01,,2013-02-07 16:52:00,
2013-02-07 12:01:00,34.0,27.0,30.04,SE,128,10.0,14.0,76,0.00,,,0.01,,2013-02-07 17:01:00,
2013-02-07 12:11:00,34.0,27.0,30.04,SE,128,10.0,14.0,76,0.00,,,0.01,,2013-02-07 17:11:00,
2013-02-07 12:21:00,35.0,28.0,30.04,ESE,112,6.0,10.0,76,0.00,,,0.01,,2013-02-07 17:21:00,
2013-02-07 12:32:00,36.0,29.0,30.03,East,101,7.0,11.0,74,0.00,,,0.01,,2013-02-07 17:32:00,
2013-02-07 12:43:00,36.0,29.0,30.03,East,101,7.0,11.0,74,0.00,,,0.01,,2013-02-07 17:43:00,
2013-02-07 12:52:00,37.0,29.0,30.03,ESE,115,5.0,11.0,74,0.00,,,0.01,,2013-02-07 17:52:00,
2013-02-07 13:02:00,38.0,30.0,30.01,ESE,112,6.0,10.0,72,0.00,,,0.01,,2013-02-07 18:02:00,
2013-02-07 13:11:00,38.0,30.0,30.01,ESE,112,6.0,10.0,72,0.00,,,0.01,,2013-02-07 18:11:00,
2013-02-07 13:23:00,38.0,29.0,30.00,SE,126,7.0,10.0,71,0.00,,,0.00,,2013-02-07 18:23:00,
2013-02-07 13:32:00,38.0,29.0,29.99,East,90,6.0,10.0,71,0.00,,,0.00,,2013-02-07 18:32:00,
2013-02-07 13:42:00,38.0,29.0,29.99,East,90,6.0,10.0,71,0.00,,,0.00,,2013-02-07 18:42:00,
2013-02-07 13:52:00,39.0,30.0,29.98,ESE,104,8.0,12.0,71,0.00,,,0.00,,2013-02-07 18:52:00,
2013-02-07 14:01:00,39.0,30.0,29.97,ESE,114,9.0,16.0,71,0.00,,,0.00,,2013-02-07 19:01:00,
2013-02-07 14:11:00,39.0,30.0,29.97,ESE,114,9.0,16.0,71,0.00,,,0.00,,2013-02-07 19:11:00,
2013-02-07 14:22:00,39.0,30.0,29.96,ESE,107,11.0,17.0,71,0.00,,,0.00,,2013-02-07 19:22:00,
2013-02-07 14:32:00,40.0,31.0,29.95,East,88,8.0,13.0,70,0.00,,,0.00,,2013-02-07 19:32:00,
2013-02-07 14:42:00,40.0,31.0,29.95,East,88,8.0,13.0,70,0.00,,,0.00,,2013-02-07 19:42:00,
2013-02-07 14:52:00,40.0,31.0,29.94,East,95,8.0,13.0,70,0.00,,,0.00,,2013-02-07 19:52:00,
2013-02-07 15:01:00,40.0,31.0,29.93,ESE,121,8.0,12.0,70,0.00,,,0.00,,2013-02-07 20:01:00,
2013-02-07 15:11:00,40.0,31.0,29.93,ESE,121,8.0,12.0,70,0.00,,,0.00,,2013-02-07 20:11:00,
2013-02-07 15:22:00,40.0,31.0,29.92,ESE,102,7.0,13.0,71,0.00,,,0.00,,2013-02-07 20:22:00,
2013-02-07 15:32:00,41.0,32.0,29.92,East,85,7.0,10.0,70,0.00,,,0.00,,2013-02-07 20:32:00,
2013-02-07 15:42:00,41.0,32.0,29.92,East,85,7.0,10.0,70,0.00,,,0.00,,2013-02-07 20:42:00,
2013-02-07 15:52:00,41.0,32.0,29.91,East,96,8.0,10.0,69,0.00,,,0.00,,2013-02-07 20:52:00,
2013-02-07 16:02:00,41.0,32.0,29.91,ESE,112,7.0,10.0,70,0.00,,,0.00,,2013-02-07 21:02:00,
2013-02-07 16:11:00,41.0,32.0,29.91,ESE,112,7.0,10.0,70,0.00,,,0.00,,2013-02-07 21:11:00,
2013-02-07 16:22:00,41.0,32.0,29.90,SE,137,7.0,12.0,69,0.00,,,0.00,,2013-02-07 21:22:00,
2013-02-07 16:32:00,41.0,32.0,29.89,SE,132,7.0,11.0,71,0.00,,,0.00,,2013-02-07 21:32:00,
2013-02-07 16:42:00,41.0,32.0,29.89,SE,132,7.0,11.0,71,0.00,,,0.00,,2013-02-07 21:42:00,
2013-02-07 16:52:00,41.0,32.0,29.89,ESE,112,5.0,13.0,71,0.00,,,0.00,,2013-02-07 21:52:00,
2013-02-07 17:02:00,40.0,32.0,29.88,East,100,7.0,13.0,72,0.00,,,0.00,,2013-02-07 22:02:00,
2013-02-07 17:11:00,40.0,32.0,29.88,East,100,7.0,13.0,72,0.00,,,0.00,,2013-02-07 22:11:00,
2013-02-07 17:22:00,39.0,31.0,29.87,East,90,10.0,15.0,73,0.00,,,0.00,,2013-02-07 22:22:00,
2013-02-07 17:32:00,39.0,32.0,29.87,East,93,8.0,12.0,75,0.00,,,0.00,,2013-02-07 22:32:00,
2013-02-07 17:42:00,39.0,32.0,29.87,East,93,8.0,12.0,75,0.00,,,0.00,,2013-02-07 22:42:00,
2013-02-07 17:52:00,38.0,31.0,29.86,ESE,104,8.0,12.0,76,0.00,,,0.00,,2013-02-07 22:52:00,
2013-02-07 18:01:00,38.0,31.0,29.86,SE,125,7.0,11.0,77,0.00,,,0.00,,2013-02-07 23:01:00,
2013-02-07 18:11:00,38.0,31.0,29.86,SE,125,7.0,11.0,77,0.00,,,0.00,,2013-02-07 23:11:00,
2013-02-07 18:22:00,38.0,32.0,29.85,ESE,103,8.0,12.0,78,0.00,,,0.00,,2013-02-07 23:22:00,
2013-02-07 18:32:00,38.0,32.0,29.85,East,84,8.0,11.0,79,0.00,,,0.00,,2013-02-07 23:32:00,
2013-02-07 18:42:00,38.0,32.0,29.85,East,84,8.0,11.0,79,0.00,,,0.00,,2013-02-07 23:42:00,
2013-02-07 18:52:00,37.0,31.0,29.84,East,95,9.0,13.0,79,0.00,,,0.00,,2013-02-07 23:52:00,
2013-02-07 19:02:00,37.0,31.0,29.83,East,95,9.0,15.0,79,0.00,,,0.00,,2013-02-08 00:02:00,
2013-02-07 19:11:00,37.0,31.0,29.83,East,95,9.0,15.0,79,0.00,,,0.00,,2013-02-08 00:11:00,
2013-02-07 19:22:00,37.0,31.0,29.83,SSE,155,10.0,16.0,80,0.00,,,0.00,,2013-02-08 00:22:00,
2013-02-07 19:32:00,37.0,31.0,29.82,East,92,10.0,16.0,80,0.00,,,0.00,,2013-02-08 00:32:00,
2013-02-07 19:42:00,37.0,31.0,29.82,East,92,10.0,16.0,80,0.00,,,0.00,,2013-02-08 00:42:00,
2013-02-07 19:52:00,37.0,31.0,29.82,ESE,122,9.0,16.0,80,0.00,,,0.00,,2013-02-08 00:52:00,
2013-02-07 20:01:00,37.0,32.0,29.81,ESE,122,9.0,13.0,81,0.00,,,0.00,,2013-02-08 01:01:00,
2013-02-07 20:11:00,37.0,32.0,29.81,ESE,122,9.0,13.0,81,0.00,,,0.00,,2013-02-08 01:11:00,
2013-02-07 20:21:00,37.0,32.0,29.80,ESE,119,10.0,15.0,82,0.00,,,0.00,,2013-02-08 01:21:00,
2013-02-07 20:32:00,37.0,32.0,29.79,East,91,8.0,11.0,82,0.00,,,0.00,,2013-02-08 01:32:00,
2013-02-07 20:42:00,37.0,32.0,29.79,East,91,8.0,11.0,82,0.00,,,0.00,,2013-02-08 01:42:00,
2013-02-07 20:52:00,37.0,32.0,29.80,ESE,110,4.0,8.0,83,0.00,,,0.00,,2013-02-08 01:52:00,
2013-02-07 21:01:00,37.0,33.0,29.80,ESE,102,3.0,5.0,84,0.00,,,0.00,,2013-02-08 02:01:00,
2013-02-07 21:11:00,37.0,33.0,29.80,ESE,102,3.0,5.0,84,0.00,,,0.00,,2013-02-08 02:11:00,
2013-02-07 21:21:00,37.0,33.0,29.81,ESE,103,2.0,4.0,85,0.00,,,0.00,,2013-02-08 02:21:00,
2013-02-07 21:32:00,37.0,33.0,29.81,East,86,0.0,3.0,86,0.02,,,0.02,,2013-02-08 02:32:00,
2013-02-07 21:42:00,37.0,33.0,29.81,East,86,0.0,3.0,86,0.02,,,0.02,,2013-02-08 02:42:00,
2013-02-07 21:52:00,36.0,33.0,29.81,North,355,3.0,3.0,90,0.03,,,0.03,,2013-02-08 02:52:00,
2013-02-07 22:02:00,36.0,34.0,29.81,North,351,0.0,2.0,91,0.04,,,0.04,,2013-02-08 03:02:00,
2013-02-07 22:12:00,36.0,34.0,29.81,North,351,0.0,2.0,91,0.04,,,0.04,,2013-02-08 03:12:00,
2013-02-07 22:22:00,36.0,34.0,29.80,NNE,24,2.0,3.0,92,0.06,,,0.06,,2013-02-08 03:22:00,
2013-02-07 22:32:00,36.0,34.0,29.79,SE,136,2.0,5.0,92,0.04,,,0.06,,2013-02-08 03:32:00,
2013-02-07 22:42:00,36.0,34.0,29.79,SE,136,2.0,5.0,92,0.04,,,0.06,,2013-02-08 03:42:00,
2013-02-07 22:52:00,36.0,34.0,29.78,ENE,57,1.0,3.0,93,0.03,,,0.06,,2013-02-08 03:52:00,
2013-02-07 23:02:00,35.0,33.0,29.77,East,92,5.0,8.0,93,0.02,,,0.06,,2013-02-08 04:02:00,
2013-02-07 23:11:00,35.0,33.0,29.77,East,92,5.0,8.0,93,0.02,,,0.06,,2013-02-08 04:11:00,
2013-02-07 23:21:00,35.0,33.0,29.77,East,98,2.0,4.0,93,0.00,,,0.06,,2013-02-08 04:21:00,
2013-02-07 23:32:00,35.0,33.0,29.77,East,98,0.0,1.0,93,0.00,,,0.06,,2013-02-08 04:32:00,
2013-02-07 23:42:00,35.0,33.0,29.77,East,98,0.0,1.0,93,0.00,,,0.06,,2013-02-08 04:42:00,
2013-02-07 23:52:00,35.0,33.0,29.77,West,259,0.0,2.0,93,0.01,,,0.07,,2013-02-08 04:52:00,